This demonstration page uses our WeatherBlox Daily Observations layout. Learn more.

Left ArrowRight Arrow

38.83388, -104.82136

Hourly Observations for January 1, 2017

Temp ( °F °C ) Dew Point ( °F °C ) Humidity (%) Winds ( mph kmh ) Pressure ( in mb ) Visibility ( mi km ) Precip ( " mm )
12:58 am 00:58 Mostly Cloudy 26 -3.2 13 -10.6 57 57 SSE 3 6 29.43 997 10 16 N/A
1:58 am 01:58 Mostly Cloudy 28 -2.4 12 -10.9 53 53 Calm 29.43 997 10 16 N/A
2:58 am 02:58 Mostly Cloudy 32 0.1 10 -12.1 40 40 Calm 29.39 995 10 16 N/A
3:58 am 03:58 Clear 32 0.2 9 -12.7 38 38 Calm 29.37 995 10 16 N/A
4:58 am 04:58 Mostly Clear 32 0.2 8 -13.2 36 36 NW 6 9 29.38 995 10 16 N/A
5:58 am 05:58 Clear 30 -0.9 8 -13.5 38 38 NNW 3 6 29.39 995 10 16 N/A
6:58 am 06:58 Clear 34 0.9 2 -16.5 26 26 WSW 9 15 29.36 994 10 16 N/A
7:11 am 07:11 Clear 39 4 -2 -19 17 17 NNW 13 20 29.50 999 10 16 N/A
7:58 am 07:58 Sunny 34 0.9 7 -14.1 32 32 WSW 5 7 29.36 994 10 16 N/A
8:58 am 08:58 Sunny 37 2.6 7 -14.1 28 28 E 3 6 29.34 994 10 16 N/A
9:58 am 09:58 Sunny 38 3.3 8 -13.2 29 29 SSE 7 11 29.35 994 10 16 N/A
10:58 am 10:58 Sunny 39 4.1 6 -14.3 25 25 E 5 7 29.33 993 10 16 N/A
11:58 am 11:58 Mostly Cloudy 42 5.7 7 -13.9 23 23 SE 7 11 29.27 991 10 16 N/A
12:58 pm 12:58 Mostly Cloudy 43 6.2 6 -14.3 22 22 ESE 8 13 29.25 991 10 16 N/A
1:58 pm 13:58 Mostly Cloudy 44 6.7 5 -15.1 20 20 SSE 3 6 29.23 990 10 16 N/A
2:58 pm 14:58 Mostly Cloudy 43 6.3 6 -14.6 21 21 ESE 8 13 29.21 989 10 16 N/A
3:58 pm 15:58 Mostly Cloudy 41 5 6 -14.3 23 23 SSW 6 9 29.25 990 10 16 N/A
4:58 pm 16:58 Partly Cloudy 26 -3.6 12 -10.9 57 57 SSE 8 13 29.50 999 10 16 N/A
5:58 pm 17:58 Mostly Cloudy 41 4.8 10 -12.3 28 28 WNW 12 19 29.27 991 10 16 N/A
6:58 pm 18:58 Mostly Cloudy 41 4.9 10 -12.5 27 27 W 8 13 29.29 992 10 16 N/A
7:58 pm 19:58 Mostly Cloudy 39 4.1 9 -12.8 28 28 S 5 7 29.31 992 10 16 N/A
8:58 pm 20:58 Mostly Cloudy 39 4.1 13 -10.4 34 34 SW 12 19 29.27 991 10 16 N/A
9:58 pm 21:58 Mostly Clear 40 4.4 13 -10.7 33 33 WSW 15 24 29.26 991 10 16 N/A
10:58 pm 22:58 Mostly Clear 38 3.2 10 -12 32 32 NW 7 11 29.25 991 10 16 N/A
11:05 pm 23:05 Mostly Clear 37 3 10 -12 33 33 W 13 20 29.50 999 10 16 N/A
11:58 pm 23:58 Clear 37 3 10 -12.1 32 32 WSW 6 9 29.25 991 10 16 N/A

Powered by AerisWeather